Regional Weather Roundup
Issued by NWS Newport/Morehead, NC

Current Version | Previous Version | Graphics & Text | Print | Product List | Glossary On
Versions: 1 2 3 4 5 6 7 8 9 10 11 12 13 14 15 16 17 18 19 20 21 22 23 24 25 26 27 28 29 30 31 32 33 34 35 36 37 38 39 40 41 42 43 44 45 46 47 48 49 50
000 ASUS42 KMHX 281813 RWRMHX WEATHER ROUNDUP FOR EASTERN NORTH CAROLINA NATIONAL WEATHER SERVICE NEWPORT/MOREHEAD CITY NC 200 PM EDT TUE MAR 28 2017 NOTE: "FAIR" INDICATES FEW OR NO CLOUDS BELOW 12,000 FEET WITH NO SIGNIFICANT WEATHER AND/OR OBSTRUCTIONS TO VISIBILITY NCZ015>017-031-032-045>047-102-103-281900- NORTH COAST CITY SKY/WX TMP DP RH WIND PRES REMARKS EDENTON LGT RAIN 66 61 83 SW8 29.92F ELIZABETH CITY CLOUDY 68 61 78 SW10 29.91F KITTY HAWK NOT AVBL MANTEO CLOUDY 70 58 65 W13 29.92F $$ NCZ045>047-081-094-103-104-281900- CENTRAL COAST CITY SKY/WX TMP DP RH WIND PRES REMARKS FRISCO CLOUDY 71 61 70 SW8 29.95F HAZE $$ NCZ095-097-098-100-101-281900- SOUTHERN COAST CITY SKY/WX TMP DP RH WIND PRES REMARKS BEAUFORT LGT RAIN 66 62 87 SW6 29.95F CEDAR ISLAND NOT AVBL JACKSONVILLE NOT AVBL PINEY ISLAND LGT RAIN N/A N/A N/A W7 29.94F WILMINGTON MOSUNNY 80 61 52 S12 29.91F $$ NCZ011>013-027>030-043-044-078>080-089-090>093-098-281900- COASTAL PLAIN CITY SKY/WX TMP DP RH WIND PRES REMARKS AHOSKIE N/A 67 62 85 SW3 29.90F CLINTON MOSUNNY 76 64 67 W7 29.91F ELIZABETHTOWN SUNNY 77 62 60 SW9 29.91F GOLDSBORO PTSUNNY 70 70 100 SW5 29.90F GREENVILLE LGT RAIN 68 63 83 SW10 29.93F HAVELOCK MOSUNNY 70 63 78 SE6 29.94F KENANSVILLE PTSUNNY 73 64 73 SW5 29.91F KINSTON PTSUNNY 70 63 78 S6 29.92F NEW BERN CLOUDY 68 64 87 NW7 29.94S RICHLANDS PTSUNNY 78 64 61 SW10 29.92F ROCKY MOUNT CLOUDY 70 63 78 SW7 29.91F WASHINGTON CLOUDY 65 61 88 SW6 29.93F WHITEVILLE MOSUNNY 80 57 44 W8 29.90F $$ AMZ130-135-150-152-154-156-158-170-250-252-270-ANZ085-086-088-633-658-670-281900- MARINE OBSERVATIONS STATION/POSITION TIME TEMP WIND PRES WAVE SWELL AIR SEA DIR/SP/G HT/PER HT/PER (UTC) (F) (DEG/KT/KT) (MB) (FT/S) (FT/S) CHESAPEAKE LIGHT NOT AVBL 64 E VA BEACH NOT AVBL DUCK 1748 66 47 240/ 8/ 11 1012.5 2 E DUCK NOT AVBL OREGON INLET 1742 64 60 200/ 12/ 13 1013.4 13E OREGON INLT 1748 54 N/A 4/11 3/11 HATTERAS CG 1748 69 62 230/ 5/ 8 1014.1 DIAMOND BUOY NOT AVBL CAPE LOOKOUT 1700 67 230/ 9/ 11 1014.6 BEAUFORT LAB 1748 65 60 200/ 5/ 6 1013.4 30 SE NEW RVR IN NOT AVBL 30 SE NEW RVR IN NOT AVBL 27 SE WRIGHTSVLE NOT AVBL 5 SE WRIGHTSVLE NOT AVBL 225 S CAPE HAT NOT AVBL 41 SE CHARLESTON NOT AVBL $$

USA.gov is the U.S. government's official web portal to all federal, state and local government web resources and services.